Cape Byron Observation History
Time Wind Speed Temp Pressure Rel. Hum Rain
24/09:30am NNW 7-15 kts 17.5°c 1023.2 hPa 88% 0.0mm
24/09:00am NNW 9-17 kts 17.5°c 1023.1 hPa 91% 1.8mm
24/08:30am NNW 8-12 kts 16.7°c 1022.5 hPa 93% 1.8mm
24/08:00am NNW 6-9 kts 16.3°c 1022.4 hPa 96% 1.8mm
24/07:30am WNW 6-9 kts 16.2°c 1023.1 hPa 97% 1.8mm
24/07:00am NW 5-9 kts 16.2°c 1023.4 hPa 96% 1.6mm
24/06:30am NNW 4-6 kts 16.0°c 1022.7 hPa 93% 1.2mm
24/06:00am NNW 6-12 kts 16.0°c 1022.4 hPa 93% 1.2mm
24/05:30am NNW 5-8 kts 16.0°c 1021.9 hPa 94% 1.2mm
24/05:00am NNW 8-14 kts 16.5°c 1022.3 hPa 95% 1.2mm
24/04:30am NNW 8-13 kts 16.6°c 1022.0 hPa 96% 1.2mm
24/04:00am NNW 8-15 kts 16.4°c 1022.4 hPa 95% 1.0mm
24/03:30am NNW 9-12 kts 16.3°c 1022.2 hPa 93% 0.8mm
24/03:00am N 9-12 kts 16.2°c 1022.7 hPa 93% 0.8mm
24/02:30am NNW 7-8 kts 15.3°c 1023.1 hPa 92% 0.8mm
24/02:00am WNW 7-8 kts 14.7°c 1023.7 hPa 95% 0.8mm
24/01:30am WNW 7-12 kts 15.4°c 1024.0 hPa 94% 0.8mm
24/01:00am WNW 6-8 kts 15.3°c 1024.3 hPa 91% 0.4mm
24/12:30am WNW 7-8 kts 15.1°c 1024.4 hPa 93% 0.4mm
24/12:00am NW 5-7 kts 15.3°c 1024.4 hPa 91% 0.4mm
Time Wind Speed Temp Pressure Rel. Hum Rain
23/11:30pm W 6-8 kts 15.8°c 1025.1 hPa 93% 0.4mm
23/11:00pm NW 7-10 kts 16.6°c 1025.5 hPa 90% 0.2mm
23/10:30pm W 3-4 kts 17.6°c 1025.5 hPa 79% 0.2mm
23/10:00pm CALM 0-3 kts 16.5°c 1025.5 hPa 79% 0.2mm
23/09:30pm W 7-9 kts 16.5°c 1026.0 hPa 80% 0.2mm
23/09:00pm WNW 5-7 kts 16.5°c 1026.0 hPa 81% 0.2mm
23/08:30pm N 5-6 kts 17.6°c 1025.8 hPa 73% 0.2mm
23/08:00pm N 5-7 kts 17.4°c 1025.4 hPa 78% 0.2mm
23/07:30pm NNE 13-17 kts 17.0°c 1025.3 hPa 85% 0.2mm
23/07:00pm NE 13-17 kts 18.0°c 1024.8 hPa 84% 0.2mm
23/06:30pm NE 11-14 kts 17.7°c 1024.7 hPa 82% 0.2mm
23/06:00pm ENE 9-11 kts 17.4°c 1024.6 hPa 84% 0.2mm
23/05:30pm NE 9-11 kts 17.9°c 1024.8 hPa 78% 0.2mm
23/05:00pm NE 8-11 kts 18.0°c 1024.7 hPa 75% 0.2mm
23/04:30pm NNE 7-10 kts 18.2°c 1024.9 hPa 71% 0.2mm
23/04:00pm ENE 4-5 kts 18.1°c 1025.0 hPa 82% 0.2mm
23/03:30pm ENE 7-9 kts 18.2°c 1025.1 hPa 82% 0.2mm
23/03:00pm ENE 6-9 kts 18.5°c 1025.5 hPa 80% 0.2mm
23/02:30pm ENE 4-6 kts 19.2°c 1025.6 hPa 78% 0.2mm
23/02:00pm NE 6-7 kts 19.5°c 1025.8 hPa 73% 0.2mm
23/01:30pm N 3-5 kts 19.7°c 1025.9 hPa 73% 0.2mm
23/01:00pm E 4-5 kts 19.8°c 1026.3 hPa 79% 0.2mm
23/12:30pm WSW 2-4 kts 18.4°c 1026.9 hPa 81% 0.0mm
23/12:00pm NW 4-6 kts 17.9°c 1027.8 hPa 88% 0.0mm
23/11:30am N 3-6 kts 17.4°c 1028.3 hPa 89% 0.0mm
23/11:00am WNW 4-7 kts 17.5°c 1028.5 hPa 86% 0.0mm
23/10:30am SW 7-9 kts 17.0°c 1028.8 hPa 89% 0.0mm
23/10:00am SW 7-9 kts 16.1°c 1029.2 hPa 91% 0.0mm
23/09:30am WSW 7-8 kts 15.5°c 1029.3 hPa 92% 0.0mm
23/09:00am WSW 8-10 kts 14.7°c 1029.2 hPa 93% 7.2mm
23/08:30am SW 7-9 kts 14.1°c 1028.8 hPa 93% 7.2mm
23/08:00am WSW 7-9 kts 14.2°c 1028.6 hPa 92% 7.2mm
23/07:30am WSW 8-11 kts 13.8°c 1028.4 hPa 96% 7.2mm
23/07:00am WSW 11-15 kts 13.2°c 1028.3 hPa 97% 7.2mm
23/06:30am WSW 11-15 kts 13.1°c 1028.0 hPa 97% 7.2mm
23/06:00am WSW 13-17 kts 13.2°c 1027.9 hPa 98% 7.2mm
23/05:30am W 12-15 kts 13.3°c 1027.8 hPa 98% 7.2mm
23/05:00am WSW 15-20 kts 13.3°c 1027.6 hPa 98% 7.2mm
23/04:30am WSW 14-17 kts 13.3°c 1027.5 hPa 97% 7.2mm
23/04:00am SW 10-13 kts 13.5°c 1026.9 hPa 97% 7.2mm
23/03:30am SW 9-11 kts 13.6°c 1027.3 hPa 97% 7.2mm
23/03:00am WSW 13-16 kts 13.6°c 1027.6 hPa 97% 7.0mm
23/02:30am SW 10-12 kts 13.9°c 1027.4 hPa 97% 7.0mm
23/02:00am SW 11-13 kts 13.6°c 1027.4 hPa 97% 7.0mm
23/01:30am SW 11-13 kts 13.4°c 1027.8 hPa 97% 7.0mm
23/01:00am SW 12-15 kts 13.6°c 1028.6 hPa 97% 7.0mm
23/12:30am SW 14-17 kts 13.6°c 1028.8 hPa 97% 7.0mm
23/12:00am WSW 12-15 kts 13.8°c 1028.9 hPa 97% 7.0mm
Time Wind Speed Temp Pressure Rel. Hum Rain
22/11:30pm SW 11-15 kts 13.9°c 1029.0 hPa 97% 7.0mm
22/11:00pm WSW 11-15 kts 14.0°c 1029.5 hPa 96% 7.0mm
22/10:30pm SW 11-16 kts 14.1°c 1029.6 hPa 97% 6.8mm
22/10:00pm SW 13-16 kts 14.1°c 1029.4 hPa 97% 6.4mm
22/09:30pm SW 12-16 kts 14.1°c 1029.3 hPa 97% 6.4mm
22/09:00pm SW 11-14 kts 14.1°c 1029.2 hPa 96% 6.4mm
22/08:30pm SW 10-12 kts 14.4°c 1029.0 hPa 95% 6.4mm
22/08:00pm S 12-19 kts 14.8°c 1029.1 hPa 92% 6.4mm
22/07:30pm S 13-21 kts 14.2°c 1029.6 hPa 97% 5.8mm
22/07:00pm SW 14-18 kts 14.3°c 1029.1 hPa 97% 4.4mm
22/06:30pm SW 9-13 kts 14.6°c 1029.0 hPa 96% 4.4mm
22/06:17pm SSW 9-14 kts 15.1°c 1028.9 hPa 96% 4.4mm
22/06:00pm SSE 18-24 kts 15.4°c 1028.9 hPa 93% 2.0mm
22/05:30pm S 13-19 kts 16.5°c 1028.2 hPa 90% 0.2mm
22/05:18pm S 20-25 kts 15.9°c 1028.1 hPa 84% 0.2mm
22/05:07pm S 20-27 kts 16.2°c 1027.9 hPa 90% 0.2mm
22/05:00pm S 18-24 kts 16.3°c 1028.0 hPa 88% 0.2mm
22/04:30pm SSW 18-22 kts 17.6°c 1027.6 hPa 73% 0.0mm
22/04:00pm SSW 21-24 kts 17.7°c 1027.2 hPa 70% 0.0mm
22/03:30pm S 19-23 kts 17.8°c 1026.9 hPa 69% 0.0mm
22/03:00pm S 19-23 kts 17.9°c 1026.7 hPa 70% 0.0mm
22/02:30pm S 18-22 kts 17.7°c 1026.7 hPa 76% 0.0mm
22/02:10pm S 19-24 kts 17.7°c 1026.6 hPa 77% 0.0mm
22/02:00pm SSW 21-25 kts 18.3°c 1026.4 hPa 76% 0.0mm
22/01:30pm SSW 22-27 kts 17.9°c 1026.8 hPa 77% 0.0mm
22/01:00pm SSW 24-27 kts 17.6°c 1026.8 hPa 77% 0.0mm
22/12:30pm SSW 22-27 kts 17.6°c 1027.3 hPa 75% 0.0mm
22/12:00pm SSW 19-23 kts 17.7°c 1027.9 hPa 72% 0.0mm
22/11:30am SSW 16-22 kts 17.5°c 1028.9 hPa 72% 0.0mm
22/11:00am SW 15-20 kts 17.2°c 1029.3 hPa 72% 0.0mm
22/10:30am SW 13-18 kts 16.9°c 1029.5 hPa 75% 0.0mm
22/10:00am SW 16-21 kts 16.2°c 1029.2 hPa 79% 0.0mm
22/09:30am SW 14-22 kts 15.6°c 1028.8 hPa 81% 0.0mm
22/09:00am SW 15-21 kts 15.3°c 1028.5 hPa 82% 1.6mm
22/08:30am SW 17-23 kts 14.4°c 1027.9 hPa 85% 1.6mm
22/08:00am SW 18-26 kts 13.7°c 1027.2 hPa 87% 1.6mm
22/07:30am SW 17-23 kts 13.1°c 1026.9 hPa 89% 1.6mm
22/07:19am SW 17-27 kts 12.7°c 1026.9 hPa 89% 1.6mm
22/07:00am SW 21-26 kts 12.7°c 1026.8 hPa 89% 1.6mm
22/06:30am SW 21-29 kts 12.4°c 1026.5 hPa 88% 1.6mm
22/06:00am SW 17-22 kts 12.1°c 1026.4 hPa 91% 1.6mm
22/05:30am SW 15-21 kts 12.2°c 1026.1 hPa 92% 1.6mm
22/05:00am SW 19-24 kts 12.5°c 1025.7 hPa 90% 1.6mm
22/04:30am SW 21-26 kts 12.6°c 1025.2 hPa 91% 1.6mm
22/04:00am SW 20-25 kts 12.5°c 1025.2 hPa 92% 1.6mm
22/03:30am SW 20-25 kts 12.6°c 1025.1 hPa 92% 1.6mm
22/03:00am SW 17-24 kts 12.6°c 1025.3 hPa 94% 1.6mm
22/02:30am SW 18-25 kts 12.7°c 1025.1 hPa 94% 1.6mm
22/02:00am SW 18-27 kts 13.1°c 1025.2 hPa 93% 1.6mm
22/01:30am SW 17-23 kts 12.9°c 1025.0 hPa 95% 1.6mm
22/01:00am SW 17-22 kts 12.8°c 1025.0 hPa 95% 1.6mm
22/12:30am WSW 12-17 kts 13.0°c 1025.2 hPa 95% 1.6mm
22/12:00am SW 14-20 kts 13.4°c 1025.3 hPa 94% 1.2mm